Regional Weather Roundup
Issued by NWS Cleveland, OH

Home | Current Version | Previous Version | Graphics & Text | Print | Product List | Glossary On
Versions: 1 2 3 4 5 6 7 8 9 10 11 12 13 14 15 16 17 18 19 20 21 22 23 24 25 26 27 28 29 30 31 32 33 34 35 36 37 38 39 40 41 42 43 44 45 46 47 48 49 50
000
ASUS41 KCLE 022100
RWRCLE
OHIO REGIONAL WEATHER ROUNDUP
NATIONAL WEATHER SERVICE WILMINGTON, OH
400 PM EST FRI DEC 02 2016

NOTE: "FAIR" INDICATES FEW OR NO CLOUDS BELOW 12,000 FEET WITH NO
SIGNIFICANT WEATHER AND/OR OBSTRUCTIONS TO VISIBILITY.

OHZ001>008-015>018-024>027-034-035-043-044-022200-
   NORTHWEST OHIO

CITY           SKY/WX    TMP DP  RH WIND       PRES   REMARKS
DEFIANCE       CLOUDY    40  32  73 W6        30.16R
FINDLAY        CLOUDY    40  31  70 W14       30.14R
TOLEDO EXPRESS CLOUDY    39  30  70 W14G23    30.14R
TOLEDO EXEC    CLOUDY    40  33  76 W12       30.14R
LIMA           CLOUDY    39  32  76 W13       30.16R
$$

OHZ009>014-019>023-028>033-038-089-022200-
   NORTHEAST OHIO

CITY           SKY/WX    TMP DP  RH WIND       PRES   REMARKS
CLE-HOPKINS    CLOUDY    39  35  86 W10       30.11R
CLE-LAKEFRONT  CLOUDY    42  33  70 W24       30.08R
CUY CO. ARPT   NOT AVBL
LORAIN-ELYRIA  CLOUDY    38  33  82 NW10      30.11R
ASHTABULA      LGT RAIN  36  34  92 W12       30.05R
AKRON-CANTON   CLOUDY    39  30  70 W15       30.08R
WOOSTER        NOT AVBL
MANSFIELD      CLOUDY    38  31  76 W12       30.11R
YOUNGSTOWN     LGT RAIN  38  31  76 W15G22    30.05R
$$

OHZ042-051>053-060>062-070>072-077>081-022200-
  SOUTHWEST OHIO

CITY           SKY/WX    TMP DP  RH WIND       PRES   REMARKS
CINC-COVINGTON CLOUDY    40  30  67 SW8       30.23R
CINC-LUNKEN    CLOUDY    41  31  67 W10       30.25R
HAMILTON       CLOUDY    41  29  62 W7        30.24R
DAYTON         NOT AVBL
WRIGHT-PAT AFB NOT AVBL
DAYTON GENERAL CLOUDY    39  29  67 W9        30.19R
WILMINGTON     CLOUDY    38  30  73 W10       30.20R
$$

OHZ036-037-039>041-045>050-054>059-063>069-073>076-082>088-022200-
  CENTRAL AND SOUTHEAST OHIO

CITY           SKY/WX    TMP DP  RH WIND       PRES   REMARKS
COLUMBUS       CLOUDY    38  33  82 W13       30.17R
OSU AIRPORT    CLOUDY    38  31  76 W12       30.17R
BOLTON FIELD   CLOUDY    37  32  81 W7        30.19R
RICKENBACK AFB NOT AVBL
NEWARK         CLOUDY    38  31  76 W10G21    30.16R
MARION         CLOUDY    39  30  70 W13       30.15R
LANCASTER      CLOUDY    39  32  76 W8        30.18R
ZANESVILLE     CLOUDY    37  33  85 SW7       30.16R
NEW PHILLY     CLOUDY    38  32  79 SW9       30.13R
$$




USA.gov is the U.S. government's official web portal to all federal, state and local government web resources and services.